TimeCAT,TemperatureF,Dew PointF,Humidity,Sea Level PressureIn,VisibilityMPH,Wind Direction,Wind SpeedMPH,Gust SpeedMPH,PrecipitationIn,Events,Conditions,WindDirDegrees,DateUTC
12:00 AM,48.2,33.8,58,30.39,-9999.0,East,5.8,-,N/A,,Clear,90,2013-06-17 22:00:00
1:00 AM,50.0,32.0,50,30.42,-9999.0,East,8.1,-,N/A,,Clear,80,2013-06-17 23:00:00
2:00 AM,48.2,33.8,58,30.42,-9999.0,NE,9.2,-,N/A,,Clear,50,2013-06-18 00:00:00
3:00 AM,46.4,35.6,66,30.42,-9999.0,East,6.9,-,N/A,,Clear,80,2013-06-18 01:00:00
4:00 AM,44.6,33.8,66,30.42,-9999.0,East,6.9,-,N/A,,Clear,100,2013-06-18 02:00:00
5:00 AM,42.8,33.8,70,30.39,-9999.0,SE,5.8,-,N/A,,Clear,130,2013-06-18 03:00:00
6:00 AM,41.0,35.6,81,30.42,-9999.0,SE,5.8,-,N/A,,Clear,140,2013-06-18 04:00:00
7:00 AM,41.0,35.6,81,30.45,-9999.0,SE,6.9,-,N/A,,Clear,140,2013-06-18 05:00:00
8:00 AM,44.6,37.4,76,30.45,-9999.0,ESE,3.5,-,N/A,,Clear,120,2013-06-18 06:00:00
9:00 AM,51.8,41.0,67,30.48,-9999.0,ENE,8.1,-,N/A,,Clear,70,2013-06-18 07:00:00
10:00 AM,55.4,41.0,58,30.45,-9999.0,NE,10.4,-,N/A,,Clear,50,2013-06-18 08:00:00
11:00 AM,59.0,39.2,48,30.45,6.2,NNE,17.3,-,N/A,,Partly Cloudy,30,2013-06-18 09:00:00
12:00 PM,62.6,35.6,37,30.42,-9999.0,NE,13.8,-,N/A,,Clear,40,2013-06-18 10:00:00
1:00 PM,62.6,35.6,37,30.36,-9999.0,NNE,12.7,-,N/A,,Clear,30,2013-06-18 11:00:00
2:00 PM,66.2,35.6,32,30.33,-9999.0,NE,11.5,-,N/A,,Clear,50,2013-06-18 12:00:00
3:00 PM,66.2,35.6,32,30.30,-9999.0,NNE,10.4,-,N/A,,Clear,20,2013-06-18 13:00:00
4:00 PM,66.2,35.6,32,30.27,-9999.0,NE,9.2,-,N/A,,Clear,50,2013-06-18 14:00:00
5:00 PM,64.4,35.6,34,30.27,-9999.0,NE,9.2,-,N/A,,Clear,50,2013-06-18 15:00:00
6:00 PM,59.0,35.6,42,30.27,-9999.0,ENE,5.8,-,N/A,,Clear,70,2013-06-18 16:00:00
7:00 PM,53.6,35.6,51,30.30,-9999.0,ENE,9.2,-,N/A,,Clear,70,2013-06-18 17:00:00
8:00 PM,55.4,37.4,51,30.30,-9999.0,ENE,9.2,-,N/A,,Clear,70,2013-06-18 18:00:00
9:00 PM,53.6,37.4,54,30.30,-9999.0,NE,8.1,-,N/A,,Clear,50,2013-06-18 19:00:00
10:00 PM,50.0,37.4,62,30.33,-9999.0,NE,5.8,-,N/A,,Clear,50,2013-06-18 20:00:00
11:00 PM,51.8,37.4,58,30.33,-9999.0,NE,6.9,-,N/A,,Clear,40,2013-06-18 21:00:00